Weather History for Geneva, Switzerland

Change the Weather History Date:

Sunday, March 3, 2013

  Actual Average Record
Temperature  
Mean Temperature 35 °F -  
Max Temperature 42 °F 50 °F 64 °F (2012)
Min Temperature 28 °F 34 °F 21 °F (2005)
Degree Days  
Heating Degree Days 30    
Moisture  
Dew Point 29 °F    
Average Humidity 76    
Maximum Humidity 93    
Minimum Humidity 52    
Precipitation  
Precipitation 0.00 in 0.10 in - ()
Sea Level Pressure  
Sea Level Pressure 30.12 in    
Wind  
Wind Speed 3 mph ()    
Max Wind Speed 7 mph    
Max Gust Speed -    
Visibility 3.6 miles    
Events      
Averages and records for this station are not official NWS values.
T = Trace of Precipitation, MM = Missing Value Source: Averaged Metar Reports

Daily Weather History Graph

Daily Weather History Graph

Search for Another Location

Airport:

Trip Planner

Search our weather history database for the weather conditions in past years. The results will help you decide how hot, cold, wet, or windy it might be!

Date:

Astronomy

Mar. 03, 2013 Rise Set
Actual Time 7:10 AM CET 6:24 PM CET
Civil Twilight 6:40 AM CET 6:54 PM CET
Nautical Twilight 6:06 AM CET 7:29 PM CET
Astronomical Twilight 5:31 AM CET 8:04 PM CET
Moon 12:06 AM CET (3/3) 9:51 AM CET (3/3)
Length of Visible Light 12h 13m
Length of Day
11h 13m
Waning Gibbous, 66% of the Moon is Illuminated
Mar 3
Waning Gibbous
Mar 4
Last Quarter
Mar 11
New
Mar 19
First Quarter
Mar 27
Full

Hourly Weather History & Observations

Time (CET) Temp. Windchill Dew Point Humidity Pressure Visibility Wind Dir Wind Speed Gust Speed Precip Events Conditions
12:00 AM 34 °F - 27 °F 67% 30.23 in - NNW 3.5 mph - -  
12:20 AM 33.8 °F - 28.4 °F 81% 30.15 in 4.3 mi Variable 2.3 mph - N/A   Overcast
12:50 AM 33.8 °F - 28.4 °F 81% 30.15 in 4.3 mi Variable 2.3 mph - N/A   Overcast
1:00 AM 33 °F - 27 °F 71% 30.22 in 4 mi North 3.5 mph - -   Mist
1:20 AM 33.8 °F 30.8 °F 28.4 °F 81% 30.15 in 5.0 mi Variable 3.5 mph - N/A   Overcast
1:50 AM 33.8 °F - 28.4 °F 81% 30.15 in 5.0 mi Variable 1.2 mph - N/A   Overcast
2:00 AM 33 °F - 27 °F 71% 30.22 in - North 3.5 mph - -  
2:50 AM 33.8 °F - 28.4 °F 81% 30.15 in 4.3 mi Variable 1.2 mph - N/A   Overcast
3:00 AM 33 °F - 27 °F 70% 30.22 in - NNW 2.3 mph - -  
3:20 AM 33.8 °F - 28.4 °F 81% 30.15 in 4.3 mi Variable 1.2 mph - N/A   Overcast
3:50 AM 33.8 °F - 28.4 °F 81% 30.12 in 4.3 mi Variable 2.3 mph - N/A   Overcast
4:20 AM 33.8 °F - 28.4 °F 81% 30.12 in 4.3 mi Variable 2.3 mph - N/A   Overcast
4:50 AM 33.8 °F - 28.4 °F 81% 30.12 in 3.7 mi Variable 1.2 mph - N/A   Overcast
5:00 AM 33 °F - 27 °F 72% 30.20 in - North 2.3 mph - -  
5:20 AM 33.8 °F - 28.4 °F 81% 30.12 in 3.7 mi Variable 2.3 mph - N/A   Overcast
5:50 AM 32.0 °F - 28.4 °F 87% 30.12 in 3.7 mi Variable 2.3 mph - N/A   Overcast
6:00 AM 33 °F - 27 °F 71% 30.20 in - NNW 2.3 mph - -  
6:20 AM 32.0 °F - 28.4 °F 87% 30.12 in 3.7 mi Variable 1.2 mph - N/A   Overcast
6:50 AM 32.0 °F - 28.4 °F 87% 30.12 in 3.7 mi Variable 2.3 mph - N/A   Overcast
7:00 AM 32 °F - 27 °F 74% 30.19 in 4 mi NW 3.5 mph - -   Mist
7:20 AM 32.0 °F - 28.4 °F 87% 30.12 in 3.1 mi Variable 1.2 mph - N/A   Overcast
7:50 AM 32.0 °F - 28.4 °F 87% 30.12 in 2.5 mi Variable 2.3 mph - N/A   Overcast
8:00 AM 33 °F - 28 °F 73% 30.20 in - North 3.5 mph - -  
8:20 AM 33.8 °F 30.8 °F 28.4 °F 81% 30.12 in 2.5 mi Variable 3.5 mph - N/A   Overcast
8:50 AM 33.8 °F - 28.4 °F 81% 30.12 in 3.1 mi Variable 2.3 mph - N/A   Overcast
9:00 AM 33 °F - 28 °F 73% 30.20 in - NNE 5.8 mph - -  
9:20 AM 33.8 °F 29.6 °F 28.4 °F 81% 30.12 in 3.1 mi North 4.6 mph - N/A   Overcast
9:50 AM 33.8 °F 30.8 °F 28.4 °F 81% 30.12 in 3.1 mi North 3.5 mph - N/A   Overcast
10:20 AM 33.8 °F 30.8 °F 28.4 °F 81% 30.12 in 3.1 mi North 3.5 mph - N/A   Overcast
10:50 AM 33.8 °F 30.8 °F 28.4 °F 81% 30.12 in 3.1 mi Variable 3.5 mph - N/A   Overcast
11:00 AM 35 °F - 28 °F 67% 30.18 in - NNE 5.8 mph - -  
11:20 AM 35.6 °F 32.8 °F 28.4 °F 75% 30.12 in 3.1 mi NNE 3.5 mph - N/A   Overcast
11:50 AM 35.6 °F 30.7 °F 28.4 °F 75% 30.12 in 3.1 mi NE 5.8 mph - N/A   Overcast
12:00 PM 35 °F - 28 °F 67% 30.18 in - NNE 6.9 mph - -  
12:20 PM 35.6 °F 31.7 °F 28.4 °F 75% 30.09 in 3.1 mi NNE 4.6 mph - N/A   Overcast
12:50 PM 37.4 °F 32.8 °F 30.2 °F 75% 30.09 in 3.1 mi ENE 5.8 mph - N/A   Overcast
1:00 PM 36 °F - 28 °F 63% 30.16 in 3 mi ENE 6.9 mph - -   Mist
1:20 PM 37.4 °F 32.8 °F 28.4 °F 70% 30.09 in 3.1 mi ENE 5.8 mph - N/A   Mostly Cloudy
1:50 PM 39.2 °F 35.9 °F 30.2 °F 70% 30.09 in 3.1 mi East 4.6 mph - N/A   Mostly Cloudy
2:00 PM 39 °F - 29 °F 56% 30.14 in - ENE 3.5 mph - -  
2:20 PM 39.2 °F 35.9 °F 30.2 °F 70% 30.06 in 3.1 mi ENE 4.6 mph - N/A   Scattered Clouds
2:50 PM 41.0 °F 39.0 °F 30.2 °F 65% 30.06 in 3.1 mi Variable 3.5 mph - N/A   Mist
3:00 PM 39 °F - 29 °F 57% 30.12 in - NNE 4.6 mph - -  
3:20 PM 41.0 °F 37.1 °F 30.2 °F 65% 30.06 in 3.7 mi NE 5.8 mph - N/A   Unknown
3:50 PM 41.0 °F 38.0 °F 30.2 °F 65% 30.06 in 3.7 mi NE 4.6 mph - N/A   Unknown
4:20 PM 42.8 °F 38.6 °F 30.2 °F 61% 30.06 in 3.7 mi ENE 6.9 mph - N/A   Unknown
4:50 PM 42.8 °F 38.6 °F 30.2 °F 61% 30.06 in 3.7 mi NE 6.9 mph - N/A   Unknown
5:00 PM 41 °F - 29 °F 52% 30.10 in - NE 6.9 mph - -  
5:20 PM 41.0 °F 37.1 °F 30.2 °F 65% 30.04 in 3.7 mi NE 5.8 mph - N/A   Unknown
5:50 PM 41.0 °F 36.4 °F 30.2 °F 65% 30.04 in 3.7 mi NE 6.9 mph - N/A   Unknown
6:00 PM 40 °F - 30 °F 57% 30.10 in - NE 5.8 mph - -  
6:20 PM 39.2 °F 35.9 °F 32.0 °F 75% 30.06 in 3.1 mi NE 4.6 mph - N/A   Mist
6:50 PM 37.4 °F 34.9 °F 32.0 °F 81% 30.06 in 3.1 mi NNE 3.5 mph - N/A   Mist
7:00 PM 37 °F - 30 °F 69% 30.12 in 3 mi NNE 3.5 mph - -   Mist
7:20 PM 37.4 °F - 30.2 °F 75% 30.06 in 3.7 mi NE 2.3 mph - N/A   Mist
7:50 PM 35.6 °F - 30.2 °F 81% 30.06 in 4.3 mi Variable 2.3 mph - N/A   Unknown
8:00 PM 36 °F - 30 °F 71% 30.14 in - NE 2.3 mph - -  
8:20 PM 33.8 °F - 30.2 °F 87% 30.06 in 4.3 mi Variable 1.2 mph - N/A   Unknown
8:50 PM 32.0 °F - 28.4 °F 87% 30.06 in 4.3 mi Variable 1.2 mph - N/A   Unknown
9:20 PM 30.2 °F - 28.4 °F 93% 30.09 in 4.3 mi NW 2.3 mph - N/A   Unknown
9:50 PM 30.2 °F - 28.4 °F 93% 30.09 in 3.7 mi Variable 1.2 mph - N/A   Unknown
10:20 PM 30.2 °F - 28.4 °F 93% 30.09 in 3.7 mi Variable 1.2 mph - N/A   Unknown
10:50 PM 30.2 °F - 26.6 °F 86% 30.09 in 3.1 mi West 1.2 mph - N/A   Mist
11:00 PM 29 °F - 27 °F 89% 30.18 in - WSW 1.2 mph - -  
11:20 PM 28.4 °F - 26.6 °F 93% 30.09 in 3.1 mi SW 2.3 mph - N/A   Mist
11:50 PM 30.2 °F - 26.6 °F 86% 30.09 in 3.1 mi WSW 2.3 mph - N/A   Mist